Scottsdale, AZ

12:51 AM MST on August 28, 2016 (GMT -0700)
Scottsdale

Weather History for KSDL - July, 2013

Change the Weather History Date:

Thursday, July 4, 2013

  Actual Average Record
Temperature  
Mean Temperature 98 °F -  
Max Temperature 105 °F 101 °F 111 °F (2007)
Min Temperature 90 °F 79 °F 73 °F (2012)
Cooling Degree Days 32    
Growing Degree Days 48 (Base 50)    
Moisture  
Dew Point 54 °F    
Average Humidity 24    
Maximum Humidity 29    
Minimum Humidity 18    
Precipitation  
Precipitation 0.00 in - - ()
Sea Level Pressure  
Sea Level Pressure 29.66 in    
Wind  
Wind Speed 4 mph (WSW)    
Max Wind Speed 13 mph    
Max Gust Speed 22 mph    
Visibility 10 miles    
Events      
Averages and records for this station are not official NWS values.
T = Trace of Precipitation, MM = Missing Value Source: NWS Daily Summary

Daily Weather History Graph

Daily Weather History Graph

Search for Another Location

Airport or City:

Trip Planner

Search our weather history database for the weather conditions in past years. The results will help you decide how hot, cold, wet, or windy it might be!

Date:

Astronomy

Jul. 04, 2013 Rise Set
Actual Time 5:22 AM MST 7:41 PM MST
Civil Twilight 4:53 AM MST 8:10 PM MST
Nautical Twilight 4:18 AM MST 8:45 PM MST
Astronomical Twilight 3:39 AM MST 9:24 PM MST
Moon 2:38 AM MST (7/4) 4:52 PM MST (7/4)
Length of Visible Light 15h 16m
Length of Day
14h 19m
Waning Crescent, 11% of the Moon is Illuminated
Jul 4
Waning Crescent
Jul 8
New
Jul 15
First Quarter
Jul 22
Full
Jul 29
Last Quarter

Hourly Weather History & Observations

Time (MST) Temp. Heat Index Dew Point Humidity Pressure Visibility Wind Dir Wind Speed Gust Speed Precip Events Conditions
12:53 AM 93.9 °F - 51.1 °F 23% 29.62 in 10.0 mi Calm Calm - N/A   Clear
1:53 AM 91.0 °F 88.5 °F 53.1 °F 27% 29.62 in 10.0 mi Calm Calm - N/A   Clear
2:53 AM 91.9 °F 89.5 °F 53.1 °F 27% 29.63 in 10.0 mi ESE 3.5 mph - N/A   Clear
3:53 AM 91.9 °F 89.5 °F 53.1 °F 27% 29.64 in 10.0 mi Calm Calm - N/A   Clear
4:53 AM 91.9 °F 89.5 °F 53.1 °F 27% 29.65 in 10.0 mi Calm Calm - N/A   Clear
5:53 AM 90.0 °F 87.7 °F 54.0 °F 29% 29.69 in 10.0 mi Calm Calm - N/A   Clear
6:53 AM 91.0 °F 88.7 °F 54.0 °F 28% 29.71 in 10.0 mi SE 5.8 mph - N/A   Clear
7:53 AM 91.9 °F 89.5 °F 53.1 °F 27% 29.74 in 10.0 mi East 6.9 mph - N/A   Clear
8:53 AM 93.0 °F 90.8 °F 54.0 °F 27% 29.75 in 10.0 mi SSE 4.6 mph - N/A   Clear
9:53 AM 96.1 °F 93.8 °F 54.0 °F 24% 29.74 in 10.0 mi Calm Calm - N/A   Clear
10:53 AM 96.1 °F 93.5 °F 53.1 °F 23% 29.73 in 10.0 mi WSW 10.4 mph - N/A   Clear
11:53 AM 98.1 °F 96.1 °F 54.0 °F 23% 29.72 in 10.0 mi SW 9.2 mph - N/A   Clear
12:53 PM 100.0 °F 98.3 °F 55.0 °F 22% 29.70 in 10.0 mi West 9.2 mph 20.7 mph N/A   Clear
1:53 PM 100.9 °F 99.6 °F 55.0 °F 22% 29.68 in 10.0 mi West 9.2 mph - N/A   Clear
2:53 PM 104.0 °F 102.3 °F 54.0 °F 19% 29.64 in 10.0 mi WSW 9.2 mph 18.4 mph N/A   Clear
3:53 PM 105.1 °F 103.3 °F 53.1 °F 18% 29.60 in 10.0 mi WSW 12.7 mph 21.9 mph N/A   Clear
4:53 PM 105.1 °F 103.3 °F 53.1 °F 18% 29.60 in 10.0 mi SW 8.1 mph - N/A   Clear
5:53 PM 105.1 °F 103.3 °F 53.1 °F 18% 29.58 in 10.0 mi West 10.4 mph - N/A   Clear
6:53 PM 102.9 °F 100.9 °F 53.1 °F 19% 29.58 in 10.0 mi SW 10.4 mph - N/A   Clear
7:53 PM 102.0 °F 99.7 °F 53.1 °F 19% 29.60 in 10.0 mi SW 10.4 mph - N/A   Clear
8:53 PM 100.0 °F 98.3 °F 55.0 °F 22% 29.62 in 10.0 mi WSW 8.1 mph - N/A   Clear
9:53 PM 99.0 °F 97.3 °F 55.0 °F 23% 29.64 in 10.0 mi WSW 10.4 mph - N/A   Clear
10:53 PM 97.0 °F 96.1 °F 57.9 °F 27% 29.66 in 10.0 mi West 8.1 mph - N/A   Clear
11:53 PM 95.0 °F 93.4 °F 55.9 °F 27% 29.68 in 10.0 mi NNW 3.5 mph - N/A   Clear